• In Hungary
  • List of Countries
  • For 7 days
  • Water Temperature
  • Satellite Maps
  • Weather Map
  • News
  • Weather Widgets
  • user-avatar
    Login

    Hourly Weather Bangalore

    Today, 20 August, Sunday

    Time Temperature Precipitation Wind Pressure Humidity
    00:00 +22°C° 0.1 mm 5 mps 680 mmHg 86%
    01:00 +22°C° 0.1 mm 5 mps 680 mmHg 86%
    02:00 +22°C° 0.1 mm 5 mps 680 mmHg 87%
    03:00 +21°C° 0.1 mm 5 mps 680 mmHg 87%
    04:00 +21°C° 0.1 mm 5 mps 680 mmHg 88%
    05:00 +21°C° 0 mm 3 mps 679 mmHg 88%
    06:00 +22°C° 0 mm 4 mps 680 mmHg 85%
    07:00 +23°C° 0 mm 5 mps 680 mmHg 81%
    08:00 +23°C° 0 mm 6 mps 681 mmHg 77%
    09:00 +24°C° 0 mm 6 mps 681 mmHg 72%
    10:00 +27°C° 0 mm 7 mps 681 mmHg 67%
    11:00 +28°C° 0 mm 7 mps 681 mmHg 62%
    12:00 +28°C° 0.4 mm 7 mps 680 mmHg 61%
    13:00 +28°C° 0.4 mm 7 mps 680 mmHg 60%
    14:00 +29°C° 0.4 mm 8 mps 679 mmHg 59%
    15:00 +28°C° 0.8 mm 7 mps 679 mmHg 62%
    16:00 +27°C° 0.8 mm 7 mps 679 mmHg 65%
    17:00 +26°C° 0.8 mm 7 mps 679 mmHg 68%
    18:00 +24°C° 0.3 mm 6 mps 679 mmHg 72%
    19:00 +24°C° 0.3 mm 6 mps 679 mmHg 76%
    20:00 +23°C° 0.3 mm 5 mps 680 mmHg 80%
    21:00 +22°C° 0 mm 5 mps 680 mmHg 81%
    22:00 +22°C° 0 mm 5 mps 680 mmHg 82%
    23:00 +22°C° 0 mm 6 mps 680 mmHg 84%

    Tomorrow, 21 August, Monday

    Time Temperature Precipitation Wind Pressure Humidity
    00:00 +22°C° 0 mm 5 mps 679 mmHg 85%
    01:00 +21°C° 0 mm 5 mps 679 mmHg 85%
    02:00 +21°C° 0 mm 5 mps 679 mmHg 86%
    03:00 +21°C° 0 mm 5 mps 679 mmHg 87%
    04:00 +21°C° 0 mm 5 mps 679 mmHg 87%
    05:00 +21°C° 0 mm 5 mps 679 mmHg 88%
    06:00 +22°C° 0 mm 5 mps 679 mmHg 85%
    07:00 +23°C° 0 mm 6 mps 680 mmHg 81%
    08:00 +23°C° 0 mm 7 mps 680 mmHg 78%
    09:00 +24°C° 0 mm 7 mps 680 mmHg 74%
    10:00 +26°C° 0 mm 7 mps 680 mmHg 70%
    11:00 +27°C° 0 mm 7 mps 680 mmHg 66%
    12:00 +28°C° 0.2 mm 8 mps 680 mmHg 64%
    13:00 +28°C° 0.2 mm 8 mps 680 mmHg 62%
    14:00 +29°C° 0.2 mm 8 mps 679 mmHg 60%
    15:00 +28°C° 0.5 mm 7 mps 679 mmHg 62%
    16:00 +28°C° 0.5 mm 7 mps 679 mmHg 65%
    17:00 +27°C° 0.5 mm 7 mps 679 mmHg 67%
    18:00 +26°C° 0 mm 6 mps 679 mmHg 71%
    19:00 +24°C° 0 mm 6 mps 680 mmHg 74%
    20:00 +23°C° 0 mm 5 mps 680 mmHg 78%
    21:00 +23°C° 0 mm 5 mps 680 mmHg 80%
    22:00 +22°C° 0 mm 5 mps 680 mmHg 82%
    23:00 +22°C° 0 mm 5 mps 680 mmHg 84%

    Day after tomorrow, 22 August, Tuesday

    Time Temperature Precipitation Wind Pressure Humidity
    00:00 +22°C° 0 mm 5 mps 679 mmHg 84%
    01:00 +22°C° 0 mm 5 mps 679 mmHg 84%
    02:00 +22°C° 0 mm 5 mps 679 mmHg 84%
    03:00 +22°C° 0 mm 5 mps 679 mmHg 84%
    04:00 +22°C° 0 mm 5 mps 679 mmHg 84%
    05:00 +22°C° 0 mm 5 mps 679 mmHg 84%
    06:00 +22°C° 0 mm 5 mps 679 mmHg 80%
    07:00 +23°C° 0 mm 6 mps 680 mmHg 77%
    08:00 +24°C° 0 mm 6 mps 681 mmHg 73%
    09:00 +26°C° 0 mm 6 mps 681 mmHg 68%
    10:00 +27°C° 0 mm 6 mps 681 mmHg 63%
    11:00 +29°C° 0 mm 7 mps 681 mmHg 58%
    12:00 +29°C° 0.1 mm 6 mps 681 mmHg 57%
    13:00 +29°C° 0.1 mm 6 mps 680 mmHg 56%
    14:00 +30°C° 0.1 mm 6 mps 679 mmHg 55%
    15:00 +29°C° 1 mm 6 mps 679 mmHg 58%
    16:00 +28°C° 1 mm 6 mps 679 mmHg 61%
    17:00 +28°C° 1 mm 6 mps 679 mmHg 64%
    18:00 +27°C° 0.4 mm 5 mps 680 mmHg 68%
    19:00 +26°C° 0.4 mm 5 mps 680 mmHg 72%
    20:00 +25°C° 0.4 mm 5 mps 681 mmHg 76%
    21:00 +25°C° 0 mm 5 mps 681 mmHg 78%
    22:00 +23°C° 0 mm 5 mps 681 mmHg 79%
    23:00 +23°C° 0 mm 5 mps 681 mmHg 81%

    23 August, Wednesday

    Time Temperature Precipitation Wind Pressure Humidity
    00:00 +22°C° 0 mm 5 mps 680 mmHg 82%
    01:00 +22°C° 0 mm 5 mps 680 mmHg 83%
    02:00 +22°C° 0 mm 5 mps 679 mmHg 85%
    03:00 +21°C° 0 mm 5 mps 680 mmHg 86%
    04:00 +21°C° 0 mm 4 mps 680 mmHg 87%
    05:00 +21°C° 0 mm 4 mps 680 mmHg 88%
    06:00 +22°C° 0 mm 5 mps 680 mmHg 84%
    07:00 +23°C° 0 mm 5 mps 681 mmHg 80%
    08:00 +23°C° 0 mm 6 mps 682 mmHg 77%
    09:00 +26°C° 0 mm 6 mps 682 mmHg 71%
    10:00 +27°C° 0 mm 6 mps 682 mmHg 65%
    11:00 +29°C° 0 mm 6 mps 682 mmHg 60%
    12:00 +29°C° 0.2 mm 6 mps 681 mmHg 58%
    13:00 +30°C° 0.2 mm 6 mps 681 mmHg 56%
    14:00 +32°C° 0.2 mm 6 mps 680 mmHg 54%
    15:00 +30°C° 1 mm 5 mps 680 mmHg 56%
    16:00 +29°C° 1 mm 5 mps 680 mmHg 58%
    17:00 +29°C° 1 mm 4 mps 680 mmHg 61%
    18:00 +28°C° 0.8 mm 4 mps 680 mmHg 65%
    19:00 +27°C° 0.8 mm 4 mps 681 mmHg 70%
    20:00 +26°C° 0.8 mm 4 mps 681 mmHg 75%
    21:00 +25°C° 0 mm 4 mps 681 mmHg 78%
    22:00 +25°C° 0 mm 4 mps 681 mmHg 80%
    23:00 +23°C° 0 mm 4 mps 681 mmHg 83%

    24 August, Thursday

    Time Temperature Precipitation Wind Pressure Humidity
    00:00 +23°C° 0 mm 4 mps 681 mmHg 84%
    01:00 +23°C° 0 mm 4 mps 680 mmHg 85%
    02:00 +22°C° 0 mm 4 mps 680 mmHg 87%
    03:00 +22°C° 0 mm 4 mps 680 mmHg 87%
    04:00 +22°C° 0 mm 3 mps 680 mmHg 88%
    05:00 +21°C° 0 mm 3 mps 680 mmHg 89%
    06:00 +22°C° 0 mm 4 mps 681 mmHg 85%
    07:00 +23°C° 0 mm 4 mps 681 mmHg 82%
    08:00 +23°C° 0 mm 5 mps 682 mmHg 78%
    09:00 +26°C° 0 mm 5 mps 682 mmHg 73%
    10:00 +27°C° 0 mm 5 mps 682 mmHg 67%
    11:00 +29°C° 0 mm 5 mps 682 mmHg 61%
    12:00 +29°C° 0 mm 5 mps 681 mmHg 57%
    13:00 +30°C° 0 mm 4 mps 681 mmHg 54%
    14:00 +32°C° 0 mm 4 mps 680 mmHg 51%
    15:00 +32°C° 0.5 mm 4 mps 680 mmHg 53%
    16:00 +30°C° 0.5 mm 4 mps 680 mmHg 55%
    17:00 +29°C° 0.5 mm 4 mps 680 mmHg 57%
    18:00 +28°C° 0.9 mm 3 mps 680 mmHg 62%
    19:00 +27°C° 0.9 mm 3 mps 681 mmHg 68%
    20:00 +26°C° 0.9 mm 3 mps 681 mmHg 73%
    21:00 +26°C° 0.1 mm 3 mps 681 mmHg 75%
    22:00 +25°C° 0.1 mm 3 mps 681 mmHg 78%
    23:00 +25°C° 0.1 mm 4 mps 681 mmHg 80%

    25 August, Friday

    Time Temperature Precipitation Wind Pressure Humidity
    00:00 +25°C° 0 mm 4 mps 681 mmHg 82%
    01:00 +23°C° 0 mm 4 mps 680 mmHg 84%
    02:00 +23°C° 0 mm 4 mps 680 mmHg 86%
    03:00 +23°C° 0 mm 4 mps 680 mmHg 86%
    04:00 +22°C° 0 mm 3 mps 680 mmHg 87%
    05:00 +22°C° 0 mm 3 mps 680 mmHg 88%
    06:00 +23°C° 0 mm 4 mps 681 mmHg 84%
    07:00 +23°C° 0 mm 4 mps 681 mmHg 80%
    08:00 +25°C° 0 mm 4 mps 682 mmHg 76%
    09:00 +27°C° 0 mm 5 mps 682 mmHg 69%
    10:00 +28°C° 0 mm 5 mps 682 mmHg 62%
    11:00 +30°C° 0 mm 5 mps 682 mmHg 55%
    12:00 +30°C° 0 mm 5 mps 681 mmHg 52%
    13:00 +32°C° 0 mm 5 mps 680 mmHg 50%
    14:00 +33°C° 0 mm 5 mps 680 mmHg 47%
    15:00 +32°C° 0 mm 5 mps 680 mmHg 49%
    16:00 +32°C° 0 mm 4 mps 680 mmHg 51%
    17:00 +30°C° 0 mm 4 mps 679 mmHg 53%
    18:00 +29°C° 0.2 mm 4 mps 680 mmHg 58%
    19:00 +28°C° 0.2 mm 4 mps 680 mmHg 64%
    20:00 +27°C° 0.2 mm 5 mps 681 mmHg 69%
    21:00 +26°C° 0 mm 5 mps 680 mmHg 72%
    22:00 +26°C° 0 mm 4 mps 680 mmHg 75%
    23:00 +25°C° 0 mm 4 mps 680 mmHg 78%
    Show more